TimeEST,TemperatureF,Dew PointF,Humidity,Sea Level PressureIn,VisibilityMPH,Wind Direction,Wind SpeedMPH,Gust SpeedMPH,PrecipitationIn,Events,Conditions,WindDirDegrees,DateUTC
12:52 AM,55.9,53.1,90,30.09,10.0,South,3.5,-,N/A,,Clear,190,2014-02-20 05:52:00
1:52 AM,54.0,52.0,93,30.11,10.0,Calm,Calm,-,N/A,,Clear,0,2014-02-20 06:52:00
2:52 AM,54.0,52.0,93,30.11,8.0,Calm,Calm,-,N/A,,Clear,0,2014-02-20 07:52:00
3:52 AM,54.0,52.0,93,30.12,9.0,Calm,Calm,-,N/A,,Clear,0,2014-02-20 08:52:00
4:52 AM,54.0,52.0,93,30.13,10.0,Calm,Calm,-,N/A,,Scattered Clouds,0,2014-02-20 09:52:00
5:52 AM,53.1,52.0,96,30.14,8.0,Calm,Calm,-,N/A,,Partly Cloudy,0,2014-02-20 10:52:00
6:52 AM,53.1,51.1,93,30.15,10.0,ESE,3.5,-,N/A,,Clear,120,2014-02-20 11:52:00
7:52 AM,52.0,52.0,100,30.16,5.0,East,3.5,-,N/A,,Scattered Clouds,80,2014-02-20 12:52:00
8:52 AM,57.0,53.1,87,30.19,10.0,ENE,4.6,-,N/A,,Clear,60,2014-02-20 13:52:00
9:52 AM,61.0,52.0,72,30.17,10.0,ESE,5.8,-,N/A,,Clear,110,2014-02-20 14:52:00
10:52 AM,64.0,53.1,67,30.17,10.0,ESE,6.9,-,N/A,,Clear,120,2014-02-20 15:52:00
11:52 AM,68.0,55.0,63,30.14,10.0,SSE,6.9,-,N/A,,Clear,150,2014-02-20 16:52:00
12:52 PM,73.0,57.0,57,30.11,10.0,South,6.9,-,N/A,,Clear,170,2014-02-20 17:52:00
1:52 PM,77.0,55.9,48,30.06,10.0,SSW,10.4,-,N/A,,Clear,210,2014-02-20 18:52:00
2:52 PM,81.0,51.1,35,30.05,10.0,SW,17.3,25.3,N/A,,Clear,220,2014-02-20 19:52:00
3:52 PM,79.0,52.0,39,30.04,10.0,SSW,15.0,25.3,N/A,,Partly Cloudy,210,2014-02-20 20:52:00
4:52 PM,77.0,54.0,45,30.04,10.0,SSW,12.7,23.0,N/A,,Partly Cloudy,210,2014-02-20 21:52:00
5:52 PM,73.0,55.0,53,30.05,10.0,SSW,9.2,-,N/A,,Clear,200,2014-02-20 22:52:00
6:52 PM,66.9,55.9,68,30.06,10.0,South,8.1,-,N/A,,Clear,170,2014-02-20 23:52:00
7:52 PM,68.0,55.0,63,30.06,10.0,SSW,13.8,-,N/A,,Clear,200,2014-02-21 00:52:00
8:52 PM,68.0,59.0,73,30.06,10.0,South,16.1,24.2,N/A,,Clear,190,2014-02-21 01:52:00
9:52 PM,66.0,60.1,81,30.06,10.0,SSW,11.5,-,N/A,,Partly Cloudy,200,2014-02-21 02:52:00
10:52 PM,64.9,60.1,84,30.06,10.0,South,9.2,-,N/A,,Mostly Cloudy,190,2014-02-21 03:52:00
11:25 PM,64.0,60.1,87,30.07,10.0,South,8.1,-,N/A,,Mostly Cloudy,190,2014-02-21 04:25:00
11:52 PM,63.0,61.0,93,30.04,10.0,South,10.4,-,N/A,,Scattered Clouds,170,2014-02-21 04:52:00